Location: San Francisco
(37.7790°N, 122.4199°W)
Time: 14:03:12
(UTC-07:00)

ISS - Visible Passes

Search period start: 28 March 2023 00:00
Search period end: 07 April 2023 00:00
Orbit: 413 x 421 km, 51.6° (Epoch: 28 March)

Date Brightness Start Highest point End Pass type
(mag) Time Alt. Az. Time Alt. Az. Time Alt. Az.
28 Mar -1.3 21:40:36 10° NNW 21:41:54 19° NNW 21:41:54 19° NNW visible
29 Mar -2.0 20:52:44 10° NNW 20:55:21 21° NNE 20:55:46 20° NE visible
30 Mar -1.5 20:04:56 10° NNW 20:06:59 15° NNE 20:09:02 10° ENE visible
30 Mar -1.8 21:40:49 10° NW 21:42:35 29° NW 21:42:35 29° NW visible
31 Mar -3.4 20:52:42 10° NW 20:55:56 47° NE 20:56:29 42° ENE visible
01 Apr -2.5 20:04:37 10° NNW 20:07:36 29° NNE 20:10:25 11° E visible
01 Apr -1.6 21:41:24 10° WNW 21:43:21 24° WSW 21:43:21 24° WSW visible
02 Apr -3.2 20:52:51 10° WNW 20:56:07 53° SW 20:57:19 32° SSE visible
03 Apr -3.8 20:04:28 10° NW 20:07:48 81° NE 20:11:08 10° SE visible
04 Apr -1.2 20:53:39 10° W 20:55:53 17° SW 20:58:06 10° S visible
05 Apr -2.0 20:04:38 10° WNW 20:07:36 30° SW 20:10:34 10° SSE visible
